SCP
-0 -0 -0 -0 -0 -0 0 0 0 -0 -0 -0 -0 0 -0 0 -0 -0 0 0 0 -0 0 0 0 0 -0 -0 -0 -0 -0 -0
-0 -0 0 -0 0 0 -0 0 0 0 0 -0 -0 0 -0 -0 -0 -0 -0 -0 -0 -0 -0 0 -0 -0 -0 -0 -0 -0 -0 -0
-0 0 0 0 0 0 0 0 0 0 0 0 0 -0 -0 -0 -0 -0 -0 0 0 -0 0 -0 -0 -0 -0 -0 -0 -0 -0 -0
0 0 0 0 0 0 0 0 0 0 0 -0 0 0 0 0 0 0 0 0 0 -0 0 -0 -0 0 -0 -0 -0 -0 -0 -0
0 0 0 0 0 0 0 0 0 -0 -0 0 0 0 0 0 0 0 0 0 0 0 -0 -0 -0 -0 -0 -0 -0 -0 -0 -0
0 0 0 0 0 0 0 -0 -0 -0 -0 -0 -0 0 0 0 0 0 0 0 0 0 0 -0 -0 -0 -0 -0 -0 -0 -0 0
0 0 0 0 0 0 0 -0 -0 -0 0 0 0 0 -0 -0 -0 0 0 0 0 0 0 -0 -0 -0 -0 -0 -0 -0 -0 0
0 0 0 0 0 0 -0 0 -0 0 0 0 -0 -0 -0 -0 -0 -0 0 0 0 0 -0 -0 -0 -0 -0 -0 -0 0 0 0
0 0 0 0 -0 -0 0 0 0 0 -0 -0 -0 -0 -0 -0 -0 -0 -0 0 -0 -0 -0 -0 -0 -0 -0 -0 0 0 0 0
0 0 0 0 -0 -0 0 0 -0 -0 -0 -0 -0 -0 -0 -0 -0 -0 -0 -0 -0 0 -0 0 -0 -0 -0 0 0 0 0 0
0 0 0 0 -0 0 0 0 -0 -0 -0 -0 -0 -0 0 0 0 0 0 0 0 0 0 0 -0 0 0 0 0 0 0 0
0 0 0 0 0 0 0 -0 -0 -0 -0 -0 -0 -0 0 0 0 0 0 0 0 0 0 0 0 0 0 0 0 0 0 0
0 0 0 0 0 0 0 0 -0 -0 -0 -0 0 0 0 0 0 0 0 0 0 0 0 0 0 0 0 0 0 0 0 0
0 0 0 0 0 0 0 0 0 0 0 0 0 0 0 0 0 0 0 0 0 0 0 0 0 0 0 0 0 0 0 0
0 0 0 0 0 0 0 0 0 0 0 0 0 0 0 0 0 0 0 0 0 0 0 0 0 0 0 0 0 0 0 0
0 0 0 0 0 0 0 0 0 0 0 0 0 0 0 0 0 0 0 0 0 0 0 0 0 0 0 0 0 0 0 0
0 0 0 0 0 0 0 0 0 0 0 0 0 0 0 0 0 0 0 0 0 0 0 0 0 0 0 0 0 0 0 0
0 0 0 0 0 0 0 0 0 0 0 0 0 0 0 0 0 0 0 0 0 0 0 0 0 0 0 0 0 0 0 0
0 0 0 0 0 0 0 0 0 0 0 0 0 0 0 0 0 0 0 0 0 0 0 0 0 0 0 0 0 0 0 0
0 0 0 0 0 0 0 0 0 0 0 0 0 0 0 0 0 0 0 0 0 0 0 0 0 0 0 0 0 0 0 0
Wind_Speed_500mb
62 57 53 50 50 50 50 51 54 55 58 58 57 60 62 59 56 54 55 55 56 55 44 38 30 23 20 20 26 24 24 23
62 58 56 53 50 47 49 50 52 55 57 59 59 62 60 58 57 54 53 54 55 45 38 35 28 20 19 25 32 36 27 19
60 59 57 55 52 48 48 52 53 54 57 60 62 63 60 57 54 53 52 52 52 40 36 33 30 27 21 27 38 37 24 19
60 59 59 58 56 52 48 52 55 59 61 62 62 62 59 56 54 52 49 47 46 37 29 27 25 27 29 30 31 24 20 16
62 59 58 58 57 55 52 54 55 57 59 61 63 61 57 53 51 48 46 45 42 34 26 23 21 20 26 25 19 22 22 18
64 61 59 57 57 58 57 60 59 61 62 63 62 59 55 51 48 45 43 41 38 31 23 11 8 19 13 8 10 7 14 22
68 64 60 58 58 60 61 65 64 63 63 61 57 55 52 48 46 44 45 39 34 33 27 15 22 16 13 10 8 5 10 17
71 68 63 60 62 61 63 66 66 65 60 56 52 49 50 51 54 51 45 40 28 29 24 19 22 23 18 11 6 7 17 11
76 72 67 62 63 63 65 68 69 65 59 54 55 52 53 53 49 43 37 34 33 36 25 19 19 18 14 9 7 14 16 11
76 78 71 63 65 63 63 71 68 59 55 53 57 50 44 42 40 37 40 46 45 39 30 25 16 13 14 10 12 14 20 16
80 83 79 69 67 65 59 67 65 57 56 58 54 48 38 33 36 37 42 55 47 40 31 24 20 19 17 15 13 17 16 15
81 87 83 78 72 65 60 65 64 54 65 65 58 49 47 41 43 42 51 54 49 41 31 25 18 21 22 18 14 12 12 10
89 92 89 88 83 81 79 74 66 61 71 65 59 54 61 49 47 52 52 42 40 39 35 32 30 26 23 24 20 15 13 16
95 93 95 98 84 87 82 75 71 67 63 57 55 56 61 54 54 49 47 42 39 42 42 41 35 34 30 28 24 21 22 19
101 101 99 103 97 90 81 72 69 66 68 64 62 67 62 63 59 58 52 51 51 48 47 46 42 41 38 22 17 18 33 27
105 102 100 107 103 99 97 96 86 78 74 69 69 73 64 63 64 60 56 54 55 51 48 42 40 41 47 42 34 17 25 21
114 107 103 106 106 102 100 100 93 86 79 74 68 70 69 69 71 65 59 58 56 49 48 49 47 45 46 50 43 27 25 25
118 119 110 106 105 100 104 96 96 91 83 80 77 75 70 68 74 71 59 60 60 56 53 51 50 48 45 45 55 48 42 36
111 117 114 105 102 102 109 100 100 101 91 91 89 85 78 72 71 70 64 59 57 57 54 52 53 52 50 47 48 47 44 37
118 121 115 106 103 104 106 100 92 99 91 92 86 82 79 70 71 69 65 61 58 55 54 51 51 52 53 52 51 51 43 50
Wind_Direction_500mb
154 156 153 147 144 144 144 148 148 147 146 145 144 141 140 139 135 133 129 129 131 132 135 131 134 137 145 152 176 175 155 151
157 161 159 155 151 150 146 147 152 153 149 148 145 144 142 140 138 135 132 132 134 133 132 133 122 106 110 158 181 168 166 163
163 164 163 158 155 154 151 150 151 154 152 150 148 147 145 141 138 136 136 137 138 139 134 133 125 112 95 125 168 163 172 173
169 169 167 163 160 158 156 155 152 153 154 153 151 149 147 146 143 139 139 141 144 150 147 139 136 126 133 137 152 165 171 163
172 171 171 168 163 161 159 157 153 153 154 154 154 153 153 150 146 144 145 148 152 158 158 153 144 144 147 154 157 177 172 153
174 173 174 171 167 163 161 159 156 155 156 157 157 157 156 155 152 151 151 148 151 156 163 171 172 149 143 155 166 166 154 158
175 174 175 173 169 165 164 161 159 157 158 158 161 161 158 154 152 156 155 154 162 167 173 155 170 163 185 188 174 169 178 172
176 174 175 174 171 168 166 165 161 161 161 160 161 158 155 153 151 153 154 157 166 175 183 193 198 204 207 182 182 194 165 193
178 172 172 173 175 170 169 167 167 167 166 162 157 157 156 157 157 161 164 179 191 184 194 193 180 181 190 186 171 162 166 193
178 172 168 169 173 167 169 171 170 171 172 162 159 161 165 172 178 188 192 183 183 195 194 178 191 210 207 191 169 177 170 198
180 177 170 171 174 170 167 175 176 176 176 165 166 167 180 192 196 195 190 186 188 194 193 211 218 198 189 175 175 171 193 207
182 180 174 173 177 177 177 176 179 182 178 170 175 182 186 193 192 189 179 180 185 192 207 215 219 207 182 177 188 199 224 238
186 184 179 178 185 189 186 187 180 177 180 179 181 192 198 198 192 191 187 200 203 205 211 216 204 204 192 166 169 189 231 270
192 190 185 183 190 186 186 187 187 188 184 188 195 195 195 193 192 194 201 204 205 208 217 210 210 213 201 176 166 193 212 231
196 195 191 188 189 187 189 189 190 194 193 195 203 200 200 199 200 205 211 211 210 215 220 222 211 212 217 211 181 206 206 217
198 198 196 193 192 190 193 190 193 195 195 196 200 199 198 205 201 206 212 216 216 214 218 227 235 230 215 219 236 219 187 199
201 199 200 199 199 197 198 194 197 198 199 199 199 203 209 212 209 211 215 220 217 217 219 226 234 232 229 223 219 221 226 224
200 200 200 200 201 201 200 197 197 196 198 199 200 205 210 212 214 216 217 215 217 219 224 232 233 234 230 232 228 227 229 223
197 201 201 203 201 203 201 202 203 201 199 201 202 206 211 213 214 214 214 215 219 222 224 231 231 229 230 230 229 235 244 240
200 203 203 204 204 205 204 204 209 208 207 206 208 211 214 216 216 217 219 219 220 224 226 228 230 231 230 230 231 229 231 237
Wind_Speed_850mb
62 57 53 50 50 50 50 51 54 55 58 58 57 60 62 59 56 54 55 55 56 55 44 38 30 23 20 20 26 24 24 23
62 58 56 53 50 47 49 50 52 55 57 59 59 62 60 58 57 54 53 54 55 45 38 35 28 20 19 25 32 36 27 19
60 59 57 55 52 48 48 52 53 54 57 60 62 63 60 57 54 53 52 52 52 40 36 33 30 27 21 27 38 37 24 19
60 59 59 58 56 52 48 52 55 59 61 62 62 62 59 56 54 52 49 47 46 37 29 27 25 27 29 30 31 24 20 16
62 59 58 58 57 55 52 54 55 57 59 61 63 61 57 53 51 48 46 45 42 34 26 23 21 20 26 25 19 22 22 18
64 61 59 57 57 58 57 60 59 61 62 63 62 59 55 51 48 45 43 41 38 31 23 11 8 19 13 8 10 7 14 22
68 64 60 58 58 60 61 65 64 63 63 61 57 55 52 48 46 44 45 39 34 33 27 15 22 16 13 10 8 5 10 17
71 68 63 60 62 61 63 66 66 65 60 56 52 49 50 51 54 51 45 40 28 29 24 19 22 23 18 11 6 7 17 11
76 72 67 62 63 63 65 68 69 65 59 54 55 52 53 53 49 43 37 34 33 36 25 19 19 18 14 9 7 14 16 11
76 78 71 63 65 63 63 71 68 59 55 53 57 50 44 42 40 37 40 46 45 39 30 25 16 13 14 10 12 14 20 16
80 83 79 69 67 65 59 67 65 57 56 58 54 48 38 33 36 37 42 55 47 40 31 24 20 19 17 15 13 17 16 15
81 87 83 78 72 65 60 65 64 54 65 65 58 49 47 41 43 42 51 54 49 41 31 25 18 21 22 18 14 12 12 10
89 92 89 88 83 81 79 74 66 61 71 65 59 54 61 49 47 52 52 42 40 39 35 32 30 26 23 24 20 15 13 16
95 93 95 98 84 87 82 75 71 67 63 57 55 56 61 54 54 49 47 42 39 42 42 41 35 34 30 28 24 21 22 19
101 101 99 103 97 90 81 72 69 66 68 64 62 67 62 63 59 58 52 51 51 48 47 46 42 41 38 22 17 18 33 27
105 102 100 107 103 99 97 96 86 78 74 69 69 73 64 63 64 60 56 54 55 51 48 42 40 41 47 42 34 17 25 21
114 107 103 106 106 102 100 100 93 86 79 74 68 70 69 69 71 65 59 58 56 49 48 49 47 45 46 50 43 27 25 25
118 119 110 106 105 100 104 96 96 91 83 80 77 75 70 68 74 71 59 60 60 56 53 51 50 48 45 45 55 48 42 36
111 117 114 105 102 102 109 100 100 101 91 91 89 85 78 72 71 70 64 59 57 57 54 52 53 52 50 47 48 47 44 37
118 121 115 106 103 104 106 100 92 99 91 92 86 82 79 70 71 69 65 61 58 55 54 51 51 52 53 52 51 51 43 50
Wind_Direction_850mb
154 156 153 147 144 144 144 148 148 147 146 145 144 141 140 139 135 133 129 129 131 132 135 131 134 137 145 152 176 175 155 151
157 161 159 155 151 150 146 147 152 153 149 148 145 144 142 140 138 135 132 132 134 133 132 133 122 106 110 158 181 168 166 163
163 164 163 158 155 154 151 150 151 154 152 150 148 147 145 141 138 136 136 137 138 139 134 133 125 112 95 125 168 163 172 173
169 169 167 163 160 158 156 155 152 153 154 153 151 149 147 146 143 139 139 141 144 150 147 139 136 126 133 137 152 165 171 163
172 171 171 168 163 161 159 157 153 153 154 154 154 153 153 150 146 144 145 148 152 158 158 153 144 144 147 154 157 177 172 153
174 173 174 171 167 163 161 159 156 155 156 157 157 157 156 155 152 151 151 148 151 156 163 171 172 149 143 155 166 166 154 158
175 174 175 173 169 165 164 161 159 157 158 158 161 161 158 154 152 156 155 154 162 167 173 155 170 163 185 188 174 169 178 172
176 174 175 174 171 168 166 165 161 161 161 160 161 158 155 153 151 153 154 157 166 175 183 193 198 204 207 182 182 194 165 193
178 172 172 173 175 170 169 167 167 167 166 162 157 157 156 157 157 161 164 179 191 184 194 193 180 181 190 186 171 162 166 193
178 172 168 169 173 167 169 171 170 171 172 162 159 161 165 172 178 188 192 183 183 195 194 178 191 210 207 191 169 177 170 198
180 177 170 171 174 170 167 175 176 176 176 165 166 167 180 192 196 195 190 186 188 194 193 211 218 198 189 175 175 171 193 207
182 180 174 173 177 177 177 176 179 182 178 170 175 182 186 193 192 189 179 180 185 192 207 215 219 207 182 177 188 199 224 238
186 184 179 178 185 189 186 187 180 177 180 179 181 192 198 198 192 191 187 200 203 205 211 216 204 204 192 166 169 189 231 270
192 190 185 183 190 186 186 187 187 188 184 188 195 195 195 193 192 194 201 204 205 208 217 210 210 213 201 176 166 193 212 231
196 195 191 188 189 187 189 189 190 194 193 195 203 200 200 199 200 205 211 211 210 215 220 222 211 212 217 211 181 206 206 217
198 198 196 193 192 190 193 190 193 195 195 196 200 199 198 205 201 206 212 216 216 214 218 227 235 230 215 219 236 219 187 199
201 199 200 199 199 197 198 194 197 198 199 199 199 203 209 212 209 211 215 220 217 217 219 226 234 232 229 223 219 221 226 224
200 200 200 200 201 201 200 197 197 196 198 199 200 205 210 212 214 216 217 215 217 219 224 232 233 234 230 232 228 227 229 223
197 201 201 203 201 203 201 202 203 201 199 201 202 206 211 213 214 214 214 215 219 222 224 231 231 229 230 230 229 235 244 240
200 203 203 204 204 205 204 204 209 208 207 206 208 211 214 216 216 217 219 219 220 224 226 228 230 231 230 230 231 229 231 237